| time (UTC) | temp F | wind direction | speed MPH | gust MPH | rain 1hr in | rain 24hr in | rain mn in | humidity % | barometer mb |
| 20260503204212 | 50 | 274 | 5.0 | 13.0 | 0.00 | 0.00 | 0.00 | 39 | |
| 20260503203712 | 50 | 250 | 6.0 | 14.0 | 0.00 | 0.00 | 0.00 | 39 | |
| 20260503203212 | 50 | 240 | 8.0 | 11.0 | 0.00 | 0.00 | 0.00 | 40 | |
| 20260503202712 | 49 | 272 | 9.0 | 12.0 | 0.00 | 0.00 | 0.00 | 41 | |
| 20260503202212 | 49 | 303 | 4.0 | 17.0 | 0.00 | 0.00 | 0.00 | 38 | |
| 20260503201712 | 49 | 322 | 10.0 | 15.0 | 0.00 | 0.00 | 0.00 | 43 | |
| 20260503201212 | 49 | 296 | 10.0 | 12.0 | 0.00 | 0.00 | 0.00 | 40 | |
| 20260503200712 | 49 | 306 | 6.0 | 15.0 | 0.00 | 0.00 | 0.00 | 43 | |
| 20260503200212 | 49 | 296 | 6.0 | 14.0 | 0.00 | 0.00 | 0.00 | 40 | |
| 20260503195712 | 48 | 271 | 8.0 | 15.0 | 0.00 | 0.00 | 0.00 | 41 | |
| 20260503195212 | 48 | 302 | 9.0 | 18.0 | 0.00 | 0.00 | 0.00 | 40 | |
| 20260503194712 | 49 | 288 | 7.0 | 15.0 | 0.00 | 0.00 | 0.00 | 40 | |
| 20260503194212 | 49 | 313 | 6.0 | 18.0 | 0.00 | 0.00 | 0.00 | 39 | |
| 20260503193712 | 49 | 331 | 10.0 | 12.0 | 0.00 | 0.00 | 0.00 | 43 | |
| 20260503193212 | 48 | 289 | 1.0 | 11.0 | 0.00 | 0.00 | 0.00 | 44 | |
| 20260503192712 | 48 | 265 | 6.0 | 12.0 | 0.00 | 0.00 | 0.00 | 44 | |
| 20260503192212 | 48 | 299 | 9.0 | 17.0 | 0.00 | 0.00 | 0.00 | 42 | |
| 20260503191712 | 48 | 268 | 5.0 | 11.0 | 0.00 | 0.00 | 0.00 | 47 | |
| 20260503191212 | 47 | 324 | 8.0 | 9.0 | 0.00 | 0.00 | 0.00 | 44 | |
| 20260503190712 | 47 | 293 | 6.0 | 13.0 | 0.00 | 0.00 | 0.00 | 43 | |
| 20260503190212 | 47 | 299 | 7.0 | 15.0 | 0.00 | 0.00 | 0.00 | 42 | |
| 20260503185712 | 47 | 357 | 8.0 | 12.0 | 0.00 | 0.00 | 0.00 | 41 | |
| 20260503185212 | 47 | 358 | 4.0 | 9.0 | 0.00 | 0.00 | 0.00 | 44 | |
| 20260503184713 | 47 | 246 | 8.0 | 9.0 | 0.00 | 0.00 | 0.00 | 46 | |
| 20260503184213 | 46 | 322 | 5.0 | 14.0 | 0.00 | 0.00 | 0.00 | 45 | |
| 20260503183713 | 45 | 289 | 11.0 | 14.0 | 0.00 | 0.00 | 0.00 | 47 | |
| 20260503183213 | 45 | 341 | 13.0 | 16.0 | 0.00 | 0.00 | 0.00 | 42 | |
| 20260503182713 | 46 | 291 | 10.0 | 16.0 | 0.00 | 0.00 | 0.00 | 42 | |
| 20260503182213 | 46 | 310 | 5.0 | 12.0 | 0.00 | 0.00 | 0.00 | 47 | |
| 20260503181713 | 46 | 309 | 6.0 | 11.0 | 0.00 | 0.00 | 0.00 | 45 | |
| 20260503181213 | 46 | 270 | 6.0 | 10.0 | 0.00 | 0.00 | 0.00 | 46 | |
| 20260503180713 | 46 | 14 | 6.0 | 15.0 | 0.00 | 0.00 | 0.00 | 45 | |
| 20260503180213 | 46 | 340 | 7.0 | 18.0 | 0.00 | 0.00 | 0.00 | 46 | |
| 20260503175713 | 46 | 326 | 4.0 | 12.0 | 0.00 | 0.00 | 0.00 | 44 | |
| 20260503175213 | 46 | 344 | 4.0 | 10.0 | 0.00 | 0.00 | 0.00 | 49 | |
| 20260503174713 | 45 | 285 | 6.0 | 12.0 | 0.00 | 0.00 | 0.00 | 50 | |
| 20260503174213 | 45 | 337 | 9.0 | 15.0 | 0.00 | 0.00 | 0.00 | 47 | |
| 20260503173713 | 44 | 309 | 5.0 | 10.0 | 0.00 | 0.00 | 0.00 | 47 | |
| 20260503173213 | 43 | 60 | 7.0 | 13.0 | 0.00 | 0.00 | 0.00 | 43 | |
| 20260503172713 | 44 | 350 | 8.0 | 13.0 | 0.00 | 0.00 | 0.00 | 51 | |
| 20260503172213 | 44 | 293 | 6.0 | 15.0 | 0.00 | 0.00 | 0.00 | 49 | |
| 20260503171713 | 44 | 15 | 2.0 | 11.0 | 0.00 | 0.00 | 0.00 | 49 | |
| 20260503171213 | 44 | 319 | 8.0 | 13.0 | 0.00 | 0.00 | 0.00 | 51 | |
| 20260503170713 | 43 | 317 | 8.0 | 13.0 | 0.00 | 0.00 | 0.00 | 50 | |
| 20260503170213 | 43 | 262 | 4.0 | 10.0 | 0.00 | 0.00 | 0.00 | 49 | |
| 20260503160213 | 42 | 295 | 9.0 | 16.0 | 0.00 | 0.00 | 0.00 | 52 | |
| 20260503150713 | 39 | 316 | 8.0 | 17.0 | 0.00 | 0.00 | 0.00 | 55 | |
| 20260503150213 | 39 | 343 | 7.0 | 13.0 | 0.00 | 0.00 | 0.00 | 56 | |
| 20260503140213 | 37 | 274 | 6.0 | 15.0 | 0.00 | 0.00 | 0.00 | 64 | |
| 20260503131213 | 35 | 306 | 9.0 | 13.0 | 0.00 | 0.00 | 0.00 | 73 | |
| 20260503130714 | 35 | 322 | 5.0 | 13.0 | 0.00 | 0.00 | 0.00 | 72 | |
| 20260503130214 | 35 | 300 | 2.0 | 11.0 | 0.00 | 0.00 | 0.00 | 76 | |
| 20260503120214 | 33 | 282 | 4.0 | 10.0 | 0.00 | 0.00 | 0.00 | 90 | |
| 20260503110714 | 31 | 286 | 6.0 | 12.0 | 0.00 | 0.00 | 0.00 | 93 | |
| 20260503110214 | 31 | 268 | 3.0 | 9.0 | 0.00 | 0.00 | 0.00 | 93 | |
| 20260503100214 | 31 | 320 | 5.0 | 8.0 | 0.00 | 0.00 | 0.00 | 94 | |
| 20260503090215 | 31 | 296 | 4.0 | 10.0 | 0.00 | 0.00 | 0.00 | 94 | |
| 20260503081214 | 32 | 329 | 6.0 | 9.0 | 0.00 | 0.00 | 0.00 | 93 | |
| 20260503080714 | 32 | 307 | 5.0 | 10.0 | 0.00 | 0.00 | 0.00 | 94 | |
| 20260503080214 | 32 | 296 | 5.0 | 11.0 | 0.00 | 0.00 | 0.00 | 95 | |
| 20260503072715 | 32 | 306 | 5.0 | 13.0 | 0.00 | 0.00 | 0.00 | 93 | |
| 20260503072215 | 33 | 296 | 5.0 | 8.0 | 0.00 | 0.00 | 0.00 | 92 | |
| 20260503071715 | 33 | 320 | 5.0 | 8.0 | 0.00 | 0.00 | 0.00 | 91 | |
| 20260503071215 | 33 | 274 | 6.0 | 10.0 | 0.00 | 0.00 | 0.00 | 91 | |
| 20260503070715 | 33 | 289 | 4.0 | 8.0 | 0.00 | 0.00 | 0.00 | 91 | |
| 20260503070215 | 33 | 277 | 2.0 | 9.0 | 0.00 | 0.00 | 0.00 | 90 | |
| 20260503060215 | 33 | 288 | 5.0 | 7.0 | 0.00 | 0.00 | 0.00 | 88 | |
| 20260503054715 | 33 | 338 | 7.0 | 11.0 | 0.00 | 0.00 | 0.00 | 88 | |
| 20260503054215 | 33 | 312 | 4.0 | 9.0 | 0.00 | 0.00 | 0.00 | 87 | |
| 20260503053715 | 33 | 299 | 6.0 | 10.0 | 0.00 | 0.00 | 0.00 | 87 | |
| 20260503053215 | 33 | 312 | 4.0 | 9.0 | 0.00 | 0.00 | 0.00 | 86 | |
| 20260503052715 | 33 | 313 | 3.0 | 10.0 | 0.00 | 0.00 | 0.00 | 86 | |
| 20260503052215 | 33 | 307 | 4.0 | 7.0 | 0.00 | 0.00 | 0.00 | 85 | |
| 20260503051715 | 33 | 288 | 2.0 | 8.0 | 0.00 | 0.00 | 0.00 | 86 | |
| 20260503051215 | 33 | 319 | 4.0 | 8.0 | 0.00 | 0.00 | 0.00 | 87 | |
| 20260503050715 | 33 | 320 | 3.0 | 9.0 | 0.00 | 0.00 | 0.00 | 87 | |
| 20260503050215 | 33 | 313 | 4.0 | 7.0 | 0.00 | 0.00 | 0.00 | 87 | |
| 20260503045715 | 33 | 330 | 3.0 | 7.0 | 0.00 | 0.00 | 0.00 | 87 | |
| 20260503045215 | 33 | 322 | 2.0 | 4.0 | 0.00 | 0.00 | 0.00 | 85 | |
| 20260503044715 | 34 | 274 | 0.0 | 4.0 | 0.00 | 0.00 | 0.00 | 85 | |
| 20260503044215 | 33 | 350 | 3.0 | 8.0 | 0.00 | 0.00 | 0.00 | 87 | |
| 20260503043715 | 33 | 358 | 5.0 | 10.0 | 0.00 | 0.00 | 0.00 | 87 | |
| 20260503043215 | 34 | 320 | 6.0 | 9.0 | 0.00 | 0.00 | 0.00 | 86 | |
| 20260503042715 | 34 | 315 | 4.0 | 7.0 | 0.00 | 0.00 | 0.00 | 84 | |
| 20260503042215 | 34 | 326 | 6.0 | 9.0 | 0.00 | 0.00 | 0.00 | 85 | |
| 20260503041715 | 34 | 312 | 5.0 | 11.0 | 0.00 | 0.00 | 0.00 | 85 | |
| 20260503041215 | 34 | 312 | 5.0 | 11.0 | 0.00 | 0.00 | 0.00 | 83 | |
| 20260503040715 | 34 | 319 | 7.0 | 8.0 | 0.00 | 0.00 | 0.00 | 82 | |
| 20260503040215 | 34 | 357 | 4.0 | 8.0 | 0.00 | 0.00 | 0.00 | 82 | |
| 20260503035715 | 34 | 295 | 5.0 | 8.0 | 0.00 | 0.00 | 0.00 | 82 | |
| 20260503035215 | 34 | 312 | 4.0 | 8.0 | 0.00 | 0.00 | 0.00 | 82 | |
| 20260503034715 | 35 | 336 | 6.0 | 11.0 | 0.00 | 0.00 | 0.00 | 81 | |
| 20260503034215 | 35 | 323 | 6.0 | 8.0 | 0.00 | 0.00 | 0.00 | 80 | |
| 20260503033715 | 35 | 315 | 5.0 | 7.0 | 0.00 | 0.00 | 0.00 | 80 | |
| 20260503033215 | 35 | 345 | 4.0 | 9.0 | 0.00 | 0.00 | 0.00 | 80 | |
| 20260503032716 | 35 | 289 | 3.0 | 10.0 | 0.00 | 0.00 | 0.00 | 80 | |
| 20260503032215 | 35 | 324 | 3.0 | 6.0 | 0.00 | 0.00 | 0.00 | 79 | |
| 20260503031715 | 35 | 324 | 3.0 | 11.0 | 0.00 | 0.00 | 0.00 | 79 | |
| 20260503031215 | 35 | 322 | 10.0 | 10.0 | 0.00 | 0.00 | 0.00 | 78 | |
| 20260503030715 | 35 | 334 | 4.0 | 9.0 | 0.00 | 0.00 | 0.00 | 78 | |
| 20260503030215 | 35 | 324 | 6.0 | 11.0 | 0.00 | 0.00 | 0.00 | 78 | |
| 20260503025715 | 35 | 327 | 4.0 | 11.0 | 0.00 | 0.00 | 0.00 | 77 | |
| 20260503025215 | 35 | 12 | 4.0 | 8.0 | 0.00 | 0.00 | 0.00 | 76 | |
| 20260503024715 | 35 | 358 | 7.0 | 12.0 | 0.00 | 0.00 | 0.00 | 77 | |
| 20260503024215 | 35 | 336 | 8.0 | 16.0 | 0.00 | 0.00 | 0.00 | 76 | |
| 20260503023715 | 36 | 4 | 12.0 | 12.0 | 0.00 | 0.00 | 0.00 | 76 | |
| 20260503023216 | 36 | 322 | 6.0 | 10.0 | 0.00 | 0.00 | 0.00 | 74 | |
| 20260503022715 | 36 | 343 | 3.0 | 13.0 | 0.00 | 0.00 | 0.00 | 75 | |
| 20260503022215 | 36 | 305 | 11.0 | 13.0 | 0.00 | 0.00 | 0.00 | 74 | |
| 20260503021716 | 36 | 305 | 4.0 | 11.0 | 0.00 | 0.00 | 0.00 | 73 | |
| 20260503021216 | 37 | 330 | 4.0 | 8.0 | 0.00 | 0.00 | 0.00 | 73 | |
| 20260503020716 | 37 | 316 | 5.0 | 10.0 | 0.00 | 0.00 | 0.00 | 73 | |
| 20260503020216 | 37 | 338 | 5.0 | 10.0 | 0.00 | 0.00 | 0.00 | 72 | |
| 20260503015716 | 37 | 322 | 5.0 | 10.0 | 0.00 | 0.00 | 0.00 | 72 | |
| 20260503015216 | 37 | 317 | 5.0 | 12.0 | 0.00 | 0.00 | 0.00 | 72 | |
| 20260503014716 | 37 | 310 | 4.0 | 14.0 | 0.00 | 0.00 | 0.00 | 71 | |
| 20260503014216 | 37 | 330 | 9.0 | 11.0 | 0.00 | 0.00 | 0.00 | 70 | |
| 20260503013716 | 37 | 344 | 10.0 | 16.0 | 0.00 | 0.00 | 0.00 | 69 | |
| 20260503013216 | 37 | 320 | 8.0 | 11.0 | 0.00 | 0.00 | 0.00 | 69 | |
| 20260503012716 | 37 | 324 | 9.0 | 15.0 | 0.00 | 0.00 | 0.00 | 68 | |
| 20260503012216 | 38 | 323 | 3.0 | 10.0 | 0.00 | 0.00 | 0.00 | 67 | |
| 20260503011716 | 38 | 334 | 7.0 | 10.0 | 0.00 | 0.00 | 0.00 | 66 | |
| 20260503011216 | 38 | 307 | 6.0 | 7.0 | 0.00 | 0.00 | 0.00 | 65 | |
| 20260503010716 | 38 | 329 | 6.0 | 12.0 | 0.00 | 0.00 | 0.00 | 64 | |
| 20260503010216 | 38 | 323 | 4.0 | 10.0 | 0.00 | 0.00 | 0.00 | 63 | |
| 20260503005716 | 38 | 303 | 3.0 | 11.0 | 0.00 | 0.00 | 0.00 | 63 | |
| 20260503005216 | 38 | 355 | 7.0 | 12.0 | 0.00 | 0.00 | 0.00 | 62 | |
| 20260503004716 | 39 | 303 | 7.0 | 9.0 | 0.00 | 0.00 | 0.00 | 61 | |
| 20260503004216 | 39 | 306 | 6.0 | 12.0 | 0.00 | 0.00 | 0.00 | 61 | |
| 20260503003716 | 39 | 315 | 2.0 | 10.0 | 0.00 | 0.00 | 0.00 | 60 | |
| 20260503003216 | 39 | 338 | 5.0 | 11.0 | 0.00 | 0.00 | 0.00 | 59 | |
| 20260503002716 | 39 | 341 | 9.0 | 17.0 | 0.00 | 0.00 | 0.00 | 58 | |
| 20260503002216 | 39 | 355 | 5.0 | 14.0 | 0.00 | 0.00 | 0.00 | 57 | |
| 20260503001716 | 40 | 305 | 7.0 | 11.0 | 0.00 | 0.00 | 0.00 | 56 | |
| 20260503001216 | 40 | 293 | 9.0 | 10.0 | 0.00 | 0.00 | 0.00 | 56 | |
| 20260503000716 | 40 | 323 | 6.0 | 7.0 | 0.00 | 0.00 | 0.00 | 55 | |
| 20260503000218 | 40 | 317 | 5.0 | 11.0 | 0.00 | 0.00 | 0.00 | 54 | |
| 20260502235716 | 41 | 298 | 8.0 | 10.0 | 0.00 | 0.00 | 0.00 | 54 | |
| 20260502235216 | 41 | 331 | 4.0 | 14.0 | 0.00 | 0.00 | 0.00 | 54 | |
| 20260502234716 | 41 | 334 | 5.0 | 13.0 | 0.00 | 0.00 | 0.00 | 54 | |
| 20260502234216 | 41 | 305 | 6.0 | 14.0 | 0.00 | 0.00 | 0.00 | 53 | |
| 20260502233716 | 41 | 291 | 2.0 | 13.0 | 0.00 | 0.00 | 0.00 | 54 | |
| 20260502233216 | 41 | 299 | 5.0 | 13.0 | 0.00 | 0.00 | 0.00 | 53 | |
| 20260502232716 | 42 | 324 | 4.0 | 10.0 | 0.00 | 0.00 | 0.00 | 53 | |
| 20260502232216 | 42 | 292 | 7.0 | 9.0 | 0.00 | 0.00 | 0.00 | 53 | |
| 20260502231716 | 42 | 277 | 5.0 | 13.0 | 0.00 | 0.00 | 0.00 | 53 | |
| 20260502231216 | 42 | 284 | 6.0 | 11.0 | 0.00 | 0.00 | 0.00 | 52 | |
| 20260502230716 | 42 | 284 | 3.0 | 11.0 | 0.00 | 0.00 | 0.00 | 52 | |
| 20260502230216 | 42 | 299 | 6.0 | 15.0 | 0.00 | 0.00 | 0.00 | 51 | |
| 20260502225716 | 42 | 307 | 9.0 | 13.0 | 0.00 | 0.00 | 0.00 | 51 | |
| 20260502225216 | 42 | 306 | 9.0 | 14.0 | 0.00 | 0.00 | 0.00 | 51 | |
| 20260502224716 | 42 | 303 | 5.0 | 16.0 | 0.00 | 0.00 | 0.00 | 50 | |
| 20260502224216 | 42 | 330 | 6.0 | 14.0 | 0.00 | 0.00 | 0.00 | 50 | |
| 20260502223307 | 43 | 322 | 9.0 | 11.0 | 0.00 | 0.02 | 0.00 | 51 | |
| 20260502222807 | 43 | 236 | 3.0 | 11.0 | 0.00 | 0.02 | 0.00 | 51 | |
| 20260502222307 | 43 | 299 | 6.0 | 18.0 | 0.00 | 0.02 | 0.00 | 50 | |
| 20260502221807 | 43 | 285 | 1.0 | 10.0 | 0.00 | 0.02 | 0.00 | 51 | |
| 20260502221307 | 43 | 299 | 5.0 | 8.0 | 0.00 | 0.02 | 0.00 | 51 | |
| 20260502220807 | 43 | 317 | 3.0 | 11.0 | 0.00 | 0.02 | 0.00 | 52 | |
| 20260502220307 | 43 | 333 | 3.0 | 14.0 | 0.00 | 0.02 | 0.00 | 50 | |
| 20260502215807 | 43 | 305 | 2.0 | 13.0 | 0.00 | 0.02 | 0.00 | 50 | |
| 20260502215307 | 43 | 291 | 6.0 | 13.0 | 0.00 | 0.02 | 0.00 | 50 | |
| 20260502214807 | 43 | 340 | 5.0 | 9.0 | 0.00 | 0.02 | 0.00 | 51 | |
| 20260502214307 | 43 | 293 | 6.0 | 12.0 | 0.00 | 0.02 | 0.00 | 51 | |
| 20260502213807 | 43 | 265 | 8.0 | 15.0 | 0.00 | 0.02 | 0.00 | 49 | |
| 20260502213307 | 43 | 307 | 4.0 | 16.0 | 0.00 | 0.02 | 0.00 | 50 | |
| 20260502212807 | 44 | 303 | 9.0 | 15.0 | 0.00 | 0.02 | 0.00 | 49 | |
| 20260502212307 | 44 | 306 | 9.0 | 14.0 | 0.00 | 0.02 | 0.00 | 50 | |
| 20260502211807 | 43 | 285 | 6.0 | 16.0 | 0.00 | 0.02 | 0.00 | 50 | |
| 20260502211307 | 43 | 296 | 9.0 | 11.0 | 0.00 | 0.02 | 0.00 | 49 | |
| 20260502210807 | 44 | 284 | 6.0 | 9.0 | 0.00 | 0.02 | 0.00 | 49 | |
| 20260502210307 | 44 | 286 | 2.0 | 8.0 | 0.00 | 0.02 | 0.00 | 51 | |
| 20260502205807 | 44 | 327 | 7.0 | 11.0 | 0.00 | 0.02 | 0.00 | 51 | |
| 20260502205307 | 44 | 255 | 2.0 | 12.0 | 0.00 | 0.02 | 0.00 | 50 | |
| 20260502204807 | 44 | 251 | 8.0 | 14.0 | 0.00 | 0.02 | 0.00 | 49 |